Voltar ao catálogo

O3B FM7

AtivoComunicaçõesMEO
NORAD 40080·PAYLOAD·🇱🇺 Luxembourg

Lançado Jul 10, 2014 de Guiana Space Centre

Loading…

Próximas Passagens (próximas 24 horas)

TLE

AtualizadoSource: CelesTrak SupGP

Época: Sep 13, 2026, 13:59 UTC

1 40080C 14038B   26256.58333333  .00000000  00000+0  00000+0 0  2564
2 40080   0.0422 349.3031 0002908 143.3659 191.1599  5.00115765    11

Acompanhe O3B FM7 em tempo real com AllMySat

Download on the App Store